Wind_Speed
11 14 14 11 13 19 24 29 34 34 33 36 38 39 37 34 34 34 34 35 35 30 32 35 37 30 33 36 36 37 36 34 36 37 36 36 33 33 38 41 43 45 46 43
5 15 4 14 20 23 25 32 37 35 31 36 38 42 42 39 31 26 29 29 26 27 31 36 39 35 32 36 40 38 36 36 31 35 38 37 37 37 39 38 40 44 42 43
12 21 20 20 24 20 20 26 27 31 33 35 38 39 10 13 24 22 26 27 28 29 29 34 37 33 33 36 37 37 30 28 34 36 37 38 37 41 40 35 38 44 43 52
11 21 18 17 21 22 29 28 31 36 37 25 12 24 27 12 18 22 16 21 21 22 22 23 28 29 30 32 32 35 37 36 37 34 36 37 37 38 40 29 38 42 45 66
24 34 27 23 26 24 31 21 26 30 32 30 16 18 12 20 15 13 14 17 20 22 24 22 20 21 19 23 28 30 34 34 35 36 36 34 33 36 31 23 32 36 47 45
32 39 30 30 27 29 30 29 29 31 30 18 27 22 11 9 12 18 18 17 18 18 17 14 14 15 13 14 18 19 22 26 28 31 34 35 30 29 32 28 24 32 36 34
39 39 27 26 32 27 25 24 9 9 6 8 6 7 16 11 19 19 17 17 16 16 14 16 18 20 23 22 21 23 26 24 26 27 32 31 33 32 32 28 35 35 33 31
30 29 16 18 23 21 18 18 12 6 4 7 15 10 13 22 18 17 17 22 19 17 17 22 27 35 36 34 36 40 36 43 43 37 39 37 37 36 39 40 36 43 39 37
19 18 17 21 20 17 12 17 19 17 19 8 14 12 12 22 21 22 23 24 22 29 32 40 37 39 43 47 49 52 53 53 55 59 58 53 50 47 49 49 49 49 46 44
32 31 26 32 30 23 21 19 13 10 4 8 8 13 20 20 18 17 19 24 33 39 47 47 44 48 48 44 44 36 35 37 33 34 39 50 60 64 65 65 67 63 61 57
29 31 31 22 24 31 27 24 21 19 17 4 3 10 16 11 12 23 35 43 45 49 50 48 38 34 33 36 36 33 37 37 34 31 29 30 29 35 44 54 49 56 61 58
30 24 25 31 32 26 27 24 19 10 6 9 4 13 12 12 24 41 47 50 51 54 49 40 38 34 36 34 32 29 22 27 27 30 35 39 37 35 34 36 38 41 44 44
25 16 13 11 8 15 15 15 14 10 13 16 9 14 28 31 47 51 50 49 52 48 41 38 39 42 41 25 24 19 24 27 22 19 21 23 29 34 36 37 40 38 44 42
29 32 29 22 13 15 18 22 21 19 12 22 27 37 50 48 48 43 43 44 41 41 46 46 44 38 20 14 14 17 23 25 24 24 23 23 22 23 25 33 42 43 46 48
31 31 29 30 30 29 30 30 30 30 35 24 37 39 38 36 35 37 34 35 41 43 43 38 37 13 10 5 6 14 19 23 23 23 24 26 29 33 34 30 25 28 40 45
29 23 22 29 23 23 33 35 31 33 32 34 34 33 31 32 31 27 34 38 41 37 33 33 22 19 11 8 2 11 20 28 27 26 26 30 29 28 33 37 40 42 36 36
21 14 11 20 18 25 22 24 28 29 29 29 26 24 24 22 27 29 36 38 33 28 21 10 6 7 1 7 10 16 20 31 28 30 28 29 30 30 43 48 53 52 46 37
25 30 23 23 22 12 19 14 11 17 19 19 18 21 20 26 33 29 31 29 29 29 28 26 10 13 8 8 7 14 22 29 31 34 35 30 31 34 35 25 21 24 31 30
19 25 21 20 23 25 30 28 26 17 15 15 17 15 22 27 32 29 26 31 21 23 22 13 11 13 13 10 10 13 20 28 32 35 36 32 34 37 25 19 15 18 23 30
7 13 23 25 6 5 16 18 11 12 21 19 10 19 27 32 37 32 27 31 21 24 21 16 15 13 20 13 11 12 18 23 27 35 34 32 34 33 21 13 11 15 22 24
18 17 14 20 20 18 20 18 12 5 5 17 22 28 29 32 30 31 27 27 19 21 20 19 17 17 14 9 10 13 17 21 28 28 31 30 32 29 21 12 8 7 12 20
11 10 7 7 7 8 12 17 14 21 22 26 29 29 29 28 29 27 24 21 19 16 16 14 13 15 15 13 14 17 15 20 22 25 30 30 29 30 25 13 9 5 5 13
9 7 11 13 17 23 24 22 23 27 28 26 28 30 27 25 28 26 19 16 13 11 12 14 14 15 20 20 21 23 18 18 25 27 29 28 27 27 23 16 8 8 1 8
18 18 22 25 28 23 21 23 24 27 24 27 26 21 19 23 23 18 15 11 10 11 12 13 14 15 20 21 25 26 27 30 30 26 27 25 26 25 25 18 9 7 6 1
21 23 22 23 19 16 14 19 20 20 25 23 13 9 17 18 14 14 12 11 12 13 12 13 14 16 19 22 24 31 32 31 28 25 25 23 24 23 22 18 9 3 5 3
12 14 14 20 18 16 20 23 27 28 23 12 12 14 14 11 11 11 11 11 11 11 12 13 14 15 16 20 22 24 28 30 28 25 25 25 23 22 19 19 12 2 6 5
Wind_Direction
250 260 275 318 303 301 295 290 289 299 300 295 296 297 293 290 282 284 285 287 282 273 272 270 271 269 252 249 247 253 264 270 263 259 259 266 268 266 270 265 255 245 240 251
298 290 325 313 302 298 295 288 286 290 288 290 292 289 293 293 289 289 276 267 266 272 263 265 268 270 258 253 251 253 258 267 257 257 257 262 267 268 268 267 248 249 246 243
298 327 302 289 283 286 283 280 294 295 301 298 299 297 296 311 277 257 271 272 267 255 249 247 252 255 241 242 245 249 250 247 252 253 257 264 267 274 276 269 255 241 248 244
292 323 313 288 272 275 289 281 287 289 296 299 288 295 297 204 294 289 259 238 229 229 226 231 234 239 236 232 230 233 233 235 234 235 244 251 262 267 273 282 262 238 243 246
295 311 309 290 285 282 285 295 290 291 287 287 282 267 255 285 261 222 209 205 213 215 209 206 210 223 228 227 222 226 228 226 226 231 237 243 251 263 267 269 260 258 245 250
295 301 289 290 280 277 287 288 285 280 279 272 277 249 282 241 219 205 192 191 197 204 209 208 211 220 232 236 232 240 242 234 237 242 243 242 238 249 255 250 259 255 256 272
297 298 297 277 273 274 275 275 291 281 232 245 245 243 250 233 206 208 214 216 221 231 246 254 264 266 262 260 262 269 265 260 254 255 256 259 253 246 247 255 253 247 255 265
288 297 281 258 257 264 267 264 233 252 225 279 271 260 240 213 211 222 232 242 251 281 302 280 285 277 282 279 277 283 291 272 269 257 263 265 262 264 263 269 258 260 262 258
282 270 266 246 260 262 264 255 260 259 259 274 251 238 234 217 227 229 239 250 297 311 311 317 302 297 299 300 296 293 290 286 283 283 273 266 262 260 266 268 268 268 266 264
274 272 262 256 266 267 263 261 260 239 253 243 253 242 225 223 239 248 271 293 310 315 320 319 318 307 303 299 293 292 289 295 285 277 274 271 267 264 263 264 264 265 268 268
258 252 261 253 262 271 264 248 237 244 234 240 247 257 182 198 274 297 317 322 319 318 315 315 315 310 311 308 301 294 298 304 288 279 275 266 273 276 270 264 262 259 257 263
250 261 266 273 273 268 262 249 242 232 246 248 250 247 204 255 305 315 318 313 310 308 311 309 309 307 309 296 297 292 295 298 290 287 274 263 262 264 270 268 266 264 259 256
252 252 282 292 278 241 234 222 228 277 269 257 262 266 271 287 300 307 307 303 300 304 305 312 311 311 312 294 282 276 285 291 304 322 318 296 278 279 276 271 265 269 257 256
255 249 242 250 257 261 257 239 258 291 268 280 266 289 297 299 299 299 299 306 308 306 312 307 311 308 301 282 269 286 275 291 306 306 301 297 293 292 286 273 265 260 253 250
247 248 250 256 260 266 272 282 286 279 276 265 282 283 292 294 300 304 310 311 310 309 308 304 299 276 270 265 313 315 313 305 308 305 304 297 286 276 273 271 263 262 255 251
238 257 267 275 274 278 283 288 282 278 276 275 282 285 286 291 288 295 309 314 314 314 311 298 272 238 247 226 297 345 349 347 336 322 319 318 306 285 280 271 269 265 259 257
248 251 282 279 287 291 275 276 282 280 279 279 280 283 284 295 301 311 319 316 319 320 357 289 357 15 93 312 311 340 346 344 339 337 322 322 314 298 283 280 272 260 253 252
271 287 285 278 293 268 280 294 276 284 281 278 282 290 301 303 305 312 313 325 308 303 12 16 8 6 291 283 321 339 343 338 335 331 334 326 323 310 307 300 284 247 236 230
274 269 259 259 263 273 282 287 278 283 281 284 292 297 293 302 303 309 311 318 313 320 356 10 335 325 306 316 307 341 330 327 329 331 333 334 335 331 316 303 282 243 224 218
310 311 262 261 256 259 278 280 264 274 285 294 291 304 307 312 316 314 316 315 317 329 324 331 318 306 299 302 306 319 320 322 324 329 334 340 343 341 334 313 306 250 228 221
299 301 283 271 258 266 262 265 328 306 316 313 302 305 310 315 316 312 318 312 312 318 318 303 289 296 322 301 320 313 325 323 323 324 336 343 345 347 342 332 331 280 229 215
301 300 293 295 289 294 337 323 297 304 300 301 305 308 306 310 312 305 310 315 318 313 306 311 280 285 291 299 317 324 311 327 333 331 337 341 347 353 350 335 1 337 214 184
259 295 296 285 273 287 296 298 294 294 296 300 300 299 301 304 304 300 310 317 324 333 324 316 322 294 282 291 303 310 321 318 325 325 330 335 343 348 351 341 353 25 46 174
279 289 292 294 287 287 295 297 298 298 294 295 298 300 298 295 298 308 318 313 326 333 333 324 318 307 304 295 285 296 293 298 310 317 321 326 336 343 352 347 337 51 25 240
282 289 286 293 302 289 294 296 314 312 305 316 288 280 296 299 311 318 317 327 339 344 338 334 326 320 315 309 302 296 295 298 309 308 313 318 325 334 339 338 342 75 75 114
275 261 252 286 294 301 310 304 304 299 296 313 307 305 303 316 323 324 337 341 343 346 351 350 346 337 327 320 317 311 302 299 300 302 306 309 313 317 324 335 321 302 126 121
Height
3097 3098 3096 3098 3098 3096 3094 3092 3089 3086 3087 3083 3079 3074 3075 3076 3073 3072 3071 3068 3068 3066 3061 3060 3057 3059 3060 3059 3060 3061 3062 3062 3063 3064 3063 3061 3059 3060 3062 3064 3064 3063 3063 3060
3098 3096 3096 3095 3094 3093 3091 3088 3083 3082 3082 3079 3074 3068 3071 3069 3068 3062 3057 3055 3057 3056 3052 3050 3047 3047 3050 3051 3050 3052 3053 3052 3055 3056 3057 3055 3052 3051 3053 3053 3053 3055 3057 3057
3093 3093 3092 3092 3090 3088 3087 3084 3080 3077 3073 3071 3066 3058 3060 3063 3057 3055 3053 3050 3046 3043 3039 3037 3035 3036 3038 3039 3041 3043 3043 3044 3046 3047 3047 3046 3045 3043 3041 3042 3043 3046 3049 3045
3090 3089 3090 3088 3085 3084 3079 3080 3076 3072 3070 3065 3064 3047 3056 3054 3048 3044 3041 3040 3037 3034 3034 3032 3030 3028 3029 3028 3029 3030 3031 3033 3033 3034 3036 3037 3036 3034 3034 3031 3036 3038 3039 3022
3086 3082 3083 3081 3079 3079 3073 3074 3071 3067 3065 3060 3058 3058 3050 3051 3043 3039 3038 3035 3032 3030 3027 3026 3026 3025 3026 3023 3023 3022 3023 3022 3024 3024 3025 3026 3027 3029 3026 3025 3027 3029 3029 3026
3079 3079 3077 3072 3072 3071 3069 3068 3065 3060 3059 3052 3054 3053 3037 3039 3038 3036 3033 3033 3030 3026 3022 3020 3021 3021 3021 3020 3017 3017 3017 3015 3015 3017 3018 3018 3017 3018 3018 3019 3019 3021 3021 3018
3072 3069 3068 3066 3064 3065 3064 3063 3059 3054 3052 3045 3043 3043 3037 3034 3032 3031 3030 3027 3024 3020 3020 3018 3018 3020 3018 3014 3012 3013 3012 3009 3007 3007 3009 3011 3010 3011 3008 3002 3006 3011 3014 3012
3063 3057 3060 3058 3057 3057 3057 3059 3058 3053 3048 3039 3041 3032 3025 3027 3025 3023 3023 3020 3015 3015 3014 3011 3011 3010 3008 3010 3007 3002 2999 2999 2998 2992 2995 2999 3001 3000 3001 3000 3000 3000 3002 3006
3062 3053 3052 3051 3050 3054 3051 3052 3049 3046 3040 3039 3027 3026 3022 3019 3017 3016 3015 3013 3012 3008 3004 3003 3003 3003 3001 2998 2997 2995 2992 2990 2987 2986 2984 2987 2987 2986 2989 2991 2993 2992 2991 2991
3057 3050 3047 3047 3044 3044 3044 3045 3046 3044 3038 3029 3016 3014 3010 3011 3011 3010 3004 3004 3003 3001 2998 2995 2993 2991 2989 2986 2984 2983 2981 2978 2975 2973 2970 2969 2970 2971 2974 2975 2977 2979 2978 2978
3052 3048 3040 3040 3039 3039 3038 3035 3035 3034 3029 3021 3017 3008 3002 3004 3005 3003 3002 2999 2998 2994 2990 2986 2984 2982 2979 2977 2975 2973 2970 2965 2962 2961 2959 2960 2959 2959 2958 2959 2962 2964 2966 2966
3044 3039 3031 3031 3033 3034 3030 3029 3029 3026 3020 3014 3009 2999 2998 3001 3000 2997 2994 2993 2991 2987 2983 2980 2978 2976 2973 2970 2967 2965 2963 2959 2954 2950 2948 2948 2948 2948 2949 2948 2951 2953 2953 2954
3034 3031 3026 3023 3024 3022 3019 3019 3020 3020 3017 3013 3013 2995 2997 2997 2993 2991 2988 2985 2982 2977 2973 2972 2968 2965 2961 2959 2960 2959 2957 2953 2947 2943 2940 2937 2937 2937 2936 2937 2939 2939 2940 2940
3026 3020 3018 3018 3018 3018 3016 3015 3014 3014 3012 3007 3000 2995 2994 2994 2988 2985 2982 2978 2974 2973 2969 2965 2961 2958 2953 2952 2953 2952 2949 2946 2942 2938 2935 2932 2929 2927 2924 2923 2922 2923 2925 2926
3020 3012 3012 3010 3011 3010 3008 3008 3009 3008 3004 3002 2998 2996 2993 2988 2985 2982 2979 2973 2969 2964 2960 2956 2955 2951 2949 2947 2947 2947 2944 2940 2936 2932 2929 2927 2924 2921 2918 2915 2912 2911 2912 2914
3012 3009 3009 3006 3007 3006 3000 2999 2998 2997 2996 2994 2992 2990 2986 2984 2981 2978 2974 2967 2962 2956 2950 2946 2946 2943 2943 2941 2941 2941 2938 2935 2930 2926 2922 2917 2913 2909 2906 2902 2900 2898 2898 2899
3009 3007 3007 2998 3002 2999 2992 2991 2988 2986 2985 2986 2985 2983 2981 2979 2976 2973 2966 2961 2957 2952 2942 2940 2938 2936 2937 2937 2939 2938 2934 2931 2927 2922 2917 2912 2905 2898 2890 2883 2877 2877 2881 2885
3003 3002 3002 2995 2997 2993 2987 2988 2984 2981 2979 2978 2977 2978 2977 2973 2969 2969 2963 2957 2953 2947 2935 2932 2935 2935 2935 2934 2932 2932 2930 2927 2922 2917 2911 2905 2898 2890 2877 2868 2862 2862 2867 2874
2997 2998 2995 2993 2991 2986 2985 2985 2982 2978 2978 2978 2973 2972 2971 2968 2964 2965 2959 2954 2948 2942 2936 2933 2932 2931 2930 2927 2928 2927 2926 2923 2918 2912 2906 2899 2891 2881 2869 2863 2860 2860 2862 2866
2994 2993 2994 2991 2987 2983 2981 2981 2977 2973 2971 2972 2971 2969 2966 2962 2956 2955 2951 2948 2942 2937 2933 2932 2930 2929 2928 2926 2924 2923 2922 2918 2914 2908 2902 2894 2886 2877 2867 2862 2859 2858 2859 2861
2989 2985 2984 2984 2983 2978 2975 2971 2972 2974 2974 2970 2967 2965 2961 2957 2954 2948 2944 2942 2939 2935 2931 2930 2929 2927 2926 2922 2921 2920 2917 2914 2910 2905 2899 2891 2883 2876 2868 2863 2859 2857 2856 2857
2990 2987 2984 2983 2979 2976 2973 2971 2972 2971 2966 2964 2962 2958 2954 2952 2948 2945 2942 2938 2935 2932 2929 2927 2925 2923 2922 2920 2918 2916 2914 2911 2906 2902 2896 2889 2882 2876 2870 2865 2860 2857 2856 2856
2987 2986 2985 2985 2978 2972 2970 2968 2966 2963 2960 2958 2954 2952 2948 2946 2943 2940 2937 2934 2932 2929 2926 2923 2921 2919 2917 2916 2915 2912 2909 2906 2903 2898 2893 2888 2882 2877 2871 2867 2863 2860 2859 2859
2980 2980 2977 2978 2971 2968 2965 2963 2960 2956 2954 2951 2948 2945 2944 2942 2939 2936 2933 2932 2929 2926 2923 2920 2919 2916 2913 2912 2910 2907 2905 2902 2900 2895 2891 2886 2882 2877 2873 2869 2866 2863 2862 2862
2972 2971 2971 2969 2966 2963 2961 2958 2954 2951 2947 2943 2942 2941 2940 2938 2935 2932 2931 2928 2926 2923 2921 2918 2916 2913 2909 2906 2904 2900 2897 2895 2893 2890 2887 2884 2881 2876 2873 2870 2868 2866 2865 2866
2966 2963 2965 2963 2962 2959 2956 2953 2950 2947 2944 2942 2941 2939 2937 2934 2932 2931 2928 2926 2924 2922 2919 2916 2912 2910 2907 2904 2900 2896 2891 2888 2886 2885 2882 2880 2878 2875 2873 2870 2869 2867 2866 2867